Regional Weather Roundup
Issued by NWS

Home | Current Version | Previous Version | Graphics & Text | Print | Product List | Glossary On
Versions: 1 2 3 4 5 6 7 8 9 10 11 12 13 14 15 16 17 18 19 20 21 22 23 24 25 26 27 28 29 30 31 32 33 34 35 36 37 38 39 40 41 42 43 44 45 46 47 48 49 50
000
ASUS43 KMPX 040001
RWRMN
WEATHER ROUNDUP FOR MINNESOTA
NATIONAL WEATHER SERVICE TWIN CITIES/CHANHASSEN MN
600 PM CST TUE MAR 03 2015


NOTE: "FAIR" INDICATES FEW OR NO CLOUDS BELOW 12,000 FEET WITH NO
SIGNIFICANT WEATHER AND/OR OBSTRUCTIONS TO VISIBILITY. N/A MEANS
CURRENT SKY AND/OR WEATHER CONDITIONS ARE NOT AVAILABLE.

MNZ060>063-068>070-040100-
   Twin Cities Metro

CITY           SKY/WX    TMP DP  RH WIND       PRES   REMARKS
TWIN CITIES    PTCLDY    18   8  65 W21       29.84R WCI   1
6HR MIN TEMP:  18; 6HR MAX TEMP:  29; 6HR PCP:  0.01;

ST PAUL        CLEAR     20   9  62 W21G28    29.84R WCI   4
CRYSTAL        PTCLDY    19   7  59 W18       29.83R WCI   4
LAKEVILLE      CLEAR     16   9  73 W17       29.84R WCI   0
EDEN PRAIRIE   CLEAR     17   5  59 W23G29    29.85R WCI  -1
6HR MIN TEMP:  17; 6HR MAX TEMP:  29; 6HR PCP: TRACE;

SOUTH ST PAUL  CLEAR     22   9  57 W14G23    29.83R WCI   9
LAKE ELMO      FAIR      21   9  58 W13G21    29.82R WCI   9
$$
MNZ001>005-007-008-013>017-022>024-027-028-040100-
   Northwest Minnesota

CITY           SKY/WX    TMP DP  RH WIND       PRES   REMARKS
BEMIDJI        PTCLDY     4  -3  74 W18       29.80R HAZE    WCI -16
HALLOCK        PTCLDY     1  -6  71 NW21G28   29.89R WCI -20
ROSEAU         PTCLDY     3  -4  72 W14G23    29.82R WCI -15
WARROAD        CLEAR      3  -6  66 W10       29.80R WCI -12
THIEF RVR FALL CLOUDY     3   1  92 W18       29.87R WCI -17
CROOKSTON      CLEAR      7   0  72 NW26      29.93R WCI -16
FOSSTON        MOCLDY     1  -6  71 W15G22    29.87R WCI -18
DETROIT LAKES  PTCLDY     9   0  66 NW24G32   29.88R WCI -12
MOORHEAD       CLEAR      9  -2  61 NW28      29.95R WCI -13
PARK RAPIDS    PTCLDY     5  -4  66 NW23G37   29.81R BLWGSNOWWCI -17
MAHNOMEN       CLOUDY     6   1  81 NW16      29.87S FOG     WCI -13
$$
MNZ006-009>011-018-025>026-040100-
   North Central Minnesota

CITY           SKY/WX    TMP DP  RH WIND       PRES   REMARKS
BAUDETTE       PTCLDY     4  -8  57 W16G24    29.76R WCI -15
FLAG ISLAND    MOCLDY     3  -8  60 NW20      29.76R WCI -18
INTL FALLS     CLEAR      6  -9  50 NW22G28   29.72R WCI -15
6HR MIN TEMP:   6; 6HR MAX TEMP:  16;

WASKISH          N/A      5   0  78 W14G21    29.79R WCI -12
BIG FORK       PTCLDY     9  -2  61 W8        29.73R WCI  -4
LONGVILLE      PTCLDY     9   0  66 W9G17     29.79R WCI  -5
GRAND RAPIDS   PTCLDY    10  -4  52 NW20G25   29.72R WCI  -8
CRANE LAKE     CLEAR      9  -8  47 W5        29.70R WCI   0
ORR            MOCLDY     9  -6  52 W17G25    29.66R WCI -10
COOK           CLEAR      9   0  66 W17G25    29.68R HAZE    WCI -10
WALKER         CLOUDY     7  -1  69 W13G23    29.79R HAZE    WCI  -9
$$
MNZ012-019>021-037-040100-
   Northeast Minnesota

CITY           SKY/WX    TMP DP  RH WIND       PRES   REMARKS
DULUTH         PTCLDY    15   0  51 NW24G30   29.64R WCI  -4
6HR MIN TEMP:  15; 6HR MAX TEMP:  26; 6HR PCP: TRACE;

ELY            CLEAR     10  -2  56 NW10G18   29.62R WCI  -3
HIBBING        CLOUDY    11  -2  56 W14G22    29.68R WCI  -5
EVELETH        CLEAR     12   1  62 W17G24    29.67R WCI  -5
DULUTH HARBOR  CLEAR     18   7  62 W23       29.71R WCI   0
TWO HARBORS    CLEAR     19   7  58 W15G24    29.63R WCI   5
SILVER BAY     FAIR      18   5  57 W7        29.61R WCI   8
GRAND MARAIS     N/A     17   4  56 W10G23    29.59R WCI   5
G MARAIS ARPRT PTCLDY    10   0  61 W17G36    29.50R WCI  -7
$$
MNZ029>031-032-039>041-046>048-054>057-064-040100-
   West Central Minnesota

CITY           SKY/WX    TMP DP  RH WIND       PRES   REMARKS
FERGUS FALLS   PTCLDY     9  -2  61 NW25G35   29.96R WCI -13
WHEATON        CLEAR      7   1  78 NW20G29   30.00R WCI -13
MORRIS         LGT SNOW  10   5  79 NW21G30   29.93R WCI  -9
ALEXANDRIA     MOCLDY     8   0  69 NW22G28   29.88R WCI -12
ELBOW LAKE     FAIR       8   2  77 NW20G28   29.92R HAZE    WCI -12
WADENA         PTCLDY     5   0  78 W17G28    29.84R HAZE    WCI -14
GLENWOOD       PTCLDY     7   1  78 W23G32    29.89R WCI -14
APPLETON       LGT SNOW  12   5  73 NW22G28   29.98R WCI  -7
BENSON         PTCLDY    10   1  67 N21G26    29.95R WCI  -9
ORTONVILLE     PTCLDY    10   1  67 NW21G26   29.98R WCI  -9
MADISON        CLEAR     12   3  67 NW18      29.99R WCI  -5
WILLMAR        FAIR      12   3  67 NW25      29.94R WCI  -8
$$
MNZ033>034-036-042>043-049>051-058-059-040100-
   Central Minnesota

CITY           SKY/WX    TMP DP  RH WIND       PRES   REMARKS
ST CLOUD       PTCLDY    13   2  61 W17G26    29.85R WCI  -4
6HR MIN TEMP:  13; 6HR MAX TEMP:  25; 6HR PCP: TRACE;

SAUK CENTRE    FAIR       9   2  74 NW16      29.88R WCI  -8
PAYNESVILLE    PTCLDY     9   2  74 W18G28    29.89R WCI -10
AITKIN         CLEAR     16   1  53 W9G16     29.75R WCI   4
PINE RIVER     MOCLDY     9   0  66 W13G24    29.84R WCI  -7
BRAINERD       MOCLDY    12   0  58 W17G24    29.80R WCI  -5
STAPLES        MOCLDY     7   1  78 NW20G31   29.84R HAZE    WCI -13
LITTLE FALLS   CLEAR     12   1  62 W18G26    29.84R WCI  -5
LITCHFIELD     PTCLDY    12   5  73 NW20G26   29.89R WCI  -6
BUFFALO        CLEAR     15   5  65 W15       29.87R WCI   0
MAPLE LAKE     PTCLDY    15   6  69 W18G26    29.87R WCI  -2
$$
MNZ037-044-045-052-053-040100-
   East Central Minnesota

CITY           SKY/WX    TMP DP  RH WIND       PRES   REMARKS
PRINCETON      CLEAR     16   3  57 W14G23    29.83R WCI   1
MORA           CLEAR     18   3  53 W14       29.79R WCI   4
RUSH CITY      CLEAR     19   4  51 NW10G18   29.79R WCI   8
MOOSE LAKE     CLEAR     18   0  45 W15G21    29.73R WCI   3
HINCKLEY       FAIR      19   5  53 W12G22    29.76R WCI   7
CLOQUET        CLEAR     16   1  53 NW16      29.68R WCI   0
MCGREGOR       CLEAR     14   1  57 NW14      29.74R WCI  -1
$$
MNZ071>073-080-081-089-090-097-098-040100-
   Southwest Minnesota

CITY           SKY/WX    TMP DP  RH WIND       PRES   REMARKS
MONTEVIDEO     MOCLDY    12   9  85 NW13G24   29.98R WCI  -3
GRANITE FALLS  LGT SNOW  12   6  77 W18       29.99R WCI  -5
CANBY          PTCLDY    12   2  65 NW20G25   30.00R WCI  -6
MARSHALL       PTCLDY    12   0  57 NW22      29.99R WCI  -7
REDWOOD FALLS  PTCLDY    12   4  70 NW17G24   29.96R WCI  -5
OLIVIA         CLEAR     10   5  79 NW18G29   29.95R WCI  -8
PIPESTONE      MOCLDY    10   5  79 NW16G24   29.96R WCI  -7
WINDOM         PTCLDY    12   5  73 NW21G26   29.94R WCI  -6
WORTHINGTON    PTCLDY    12   3  67 NW20      29.96R WCI  -6
JACKSON        MOCLDY    16   7  67 NW18G25   29.92S WCI  -1
TRACY          CLEAR     13   5  70 NW18G26   29.97R WCI  -5
SLAYTON        PTCLDY    11   3  70 NW17G23   29.96R WCI  -6
$$
MNZ065>067-074>077-082>085-091>093-040100-
   South Central Minnesota

CITY           SKY/WX    TMP DP  RH WIND       PRES   REMARKS
MANKATO        CLOUDY    16   9  73 NW24G31   29.90R WCI  -3
NEW ULM        CLOUDY    14   5  67 NW23G30   29.94R WCI  -5
ST JAMES       PTCLDY    16   9  73 W22G28    29.95R WCI  -2
FAIRMONT       MOCLDY    16   5  62 NW21G29   29.90R WCI  -2
GLENCOE        MOCLDY    16   9  74 W20G25    29.89R WCI  -1
FARIBAULT      LGT SNOW  18  10  73 W17G30    29.87R WCI   2
OWATONNA       PTCLDY    16  10  79 W22G29    29.86R WCI  -2
ALBERT LEA     PTCLDY    18  10  73 NW15G25   29.85R WCI   3
$$
MNZ078>079-086>088-094>096-040100-
   Southeast Minnesota

CITY           SKY/WX    TMP DP  RH WIND       PRES   REMARKS
ROCHESTER      PTCLDY    19  14  81 W26       29.78R WCI   1
6HR MIN TEMP:  19; 6HR MAX TEMP:  29;

RED WING       CLEAR     25   7  46 NW14G24   29.80R WCI  13
STANTON        CLEAR     19  10  68 W26       29.84R WCI   1
DODGE CENTER   LGT SNOW  18  14  86 W22G28    29.80R WCI   0
WINONA         MOCLDY    30  19  64 NW13G23   29.77R WCI  20
AUSTIN         CLEAR     18  10  73 NW22G30   29.83R WCI   0
PRESTON        PTCLDY    21  13  70 NW22G29   29.78R WCI   5
$$
ABBREVIATIONS USED IN REMARKS
   TC - TEMPERATURES IN CELSIUS
  WCI - WIND CHILL INDEX
   HX - HEAT INDEX
  VSB - VISIBILITY
$$


USA.gov is the U.S. government's official web portal to all federal, state and local government web resources and services.